RH
15 17 16 14 15 16 22 30 28 49 59 59 60 67 96 94 62 96 92 98 90 84 56 27 11 11 10 10 8 23 19 14 20 27 25 26 24 22 22 19 12 14 18 19 19
19 21 26 34 46 52 50 40 43 62 72 67 72 67 84 97 93 50 97 99 98 96 66 40 12 12 12 12 11 28 19 27 26 33 27 23 17 14 18 13 16 15 18 18 19
23 23 32 61 68 85 85 76 62 61 78 68 74 73 87 97 98 51 75 95 91 100 79 48 15 13 15 13 14 40 24 32 35 34 32 25 21 13 18 17 15 19 19 18 19
25 28 36 50 55 79 93 87 98 85 69 71 78 88 95 97 98 56 48 88 96 96 95 50 17 20 31 16 17 36 29 38 40 35 31 28 22 20 22 16 14 15 19 19 21
25 32 35 50 53 73 98 95 84 90 84 80 84 86 94 97 97 64 39 79 94 99 97 53 18 30 61 27 24 29 29 41 41 34 31 25 20 16 14 13 16 18 19 21 22
27 33 45 55 53 65 90 91 79 84 84 90 97 96 97 98 93 77 50 75 95 99 99 44 21 40 61 30 34 27 26 38 39 32 28 23 17 17 14 12 14 20 22 23 21
29 30 42 44 52 50 74 82 89 89 88 92 93 97 97 98 97 86 70 74 98 99 92 42 68 77 79 67 40 26 21 33 34 31 25 18 20 21 22 18 20 22 23 23 22
32 35 40 46 51 46 54 72 84 92 85 89 85 90 99 98 96 82 84 67 71 100 80 38 83 78 75 73 62 38 27 27 28 22 20 22 24 22 24 27 25 24 25 24 22
42 37 37 40 42 49 51 60 73 89 93 89 80 87 97 95 86 80 77 87 82 99 91 82 86 85 79 71 59 46 27 25 21 23 23 28 27 24 26 27 28 28 25 22 23
46 32 35 43 42 50 57 59 87 82 95 96 96 87 93 85 84 73 74 91 88 88 99 95 87 81 75 70 52 45 41 28 21 22 24 31 26 21 27 25 27 25 22 23 22
58 56 59 68 64 80 84 88 88 99 99 96 96 97 99 82 83 72 76 74 95 96 97 93 74 73 67 60 40 32 29 22 25 21 22 27 24 24 23 24 22 22 22 24 22
63 61 59 62 71 75 82 82 92 96 98 100 100 98 99 99 96 86 74 77 92 90 97 83 79 64 54 43 43 34 41 32 26 22 24 28 23 26 23 21 22 23 22 21 19
65 61 60 62 64 66 73 89 93 95 97 98 98 97 98 98 97 100 90 78 97 96 98 77 63 49 52 45 44 40 43 28 27 29 30 28 23 21 20 21 24 24 21 13 10
62 62 55 58 62 60 64 69 84 92 94 97 95 99 98 98 99 100 91 97 99 96 96 64 55 56 50 51 44 45 43 33 28 27 27 27 22 22 20 20 20 17 13 10 7
54 58 52 56 61 62 62 68 78 86 92 97 98 98 98 97 98 98 98 96 96 97 70 62 57 52 49 46 41 44 41 38 28 26 28 20 20 14 15 17 12 8 6 5 5
55 52 52 48 55 57 59 71 84 80 95 97 98 98 96 99 99 97 98 96 86 78 57 59 56 48 46 44 43 44 38 28 32 28 39 22 17 25 24 19 15 11 9 10 11
53 51 49 49 51 56 62 70 66 88 96 96 98 96 95 96 97 98 93 93 87 67 60 60 51 46 46 45 37 35 28 36 32 41 55 38 25 18 32 31 29 21 18 18 16
47 50 49 49 52 57 59 58 80 98 95 96 98 97 94 84 94 94 98 87 67 57 52 46 63 40 37 33 29 26 28 22 45 71 68 41 31 22 30 27 24 20 18 20 20
35 48 45 44 50 52 55 57 80 85 91 90 87 92 94 82 86 88 68 72 66 47 46 46 51 48 35 27 28 31 44 43 40 51 47 27 32 42 45 36 19 17 16 17 19
36 36 43 50 51 51 47 67 76 84 88 89 97 79 82 84 81 67 64 61 58 46 46 44 47 50 44 33 29 30 27 28 43 56 54 59 42 37 40 28 22 22 23 23 27
15 32 31 41 51 50 54 71 72 70 75 86 91 83 86 89 75 69 58 56 54 54 48 46 32 44 36 30 24 24 24 33 34 47 81 68 49 47 38 17 24 28 28 30 31
13 14 32 39 33 44 52 58 63 66 72 77 79 72 69 74 72 65 55 55 60 52 48 51 42 36 40 50 30 23 24 34 35 45 44 46 42 29 24 26 30 35 36 30 19
14 13 13 18 37 35 37 41 48 54 54 58 77 68 61 61 66 67 54 47 51 42 59 59 54 58 51 46 48 29 29 27 34 44 41 41 37 32 34 28 26 24 15 14 11
12 14 17 16 16 21 37 45 48 48 51 51 52 58 55 54 58 62 46 41 46 52 49 57 56 48 30 27 23 25 20 29 34 38 40 38 34 29 31 30 20 18 15 13 10
12 13 14 19 19 17 18 22 23 37 45 46 57 62 69 67 59 54 44 40 40 42 45 45 52 57 46 48 36 22 18 24 28 31 32 35 39 40 37 32 31 34 27 13 14
23 14 14 15 18 22 21 18 18 18 19 21 26 36 63 58 56 46 46 43 43 42 39 40 40 46 46 40 36 31 32 33 34 33 34 38 43 42 43 40 34 19 16 15 15
43 31 21 21 16 18 23 21 21 21 20 22 20 18 21 21 47 52 58 51 47 42 40 45 40 26 28 31 26 20 21 21 20 22 24 29 27 39 34 29 25 23 17 16 16
Wind_Speed
25 24 22 21 23 23 25 25 21 18 17 17 24 33 30 30 32 43 37 23 28 30 30 30 32 34 35 36 39 35 27 27 22 21 24 21 23 22 20 17 15 14 8 9 8
23 22 21 20 20 19 21 21 19 16 14 16 21 29 32 36 29 42 46 26 21 23 29 29 32 35 36 38 39 34 28 24 23 21 24 21 23 26 21 17 15 13 10 9 7
22 20 18 18 20 23 21 21 19 16 13 14 20 25 27 30 26 38 49 30 27 19 25 27 29 34 36 39 39 32 29 20 14 19 18 19 22 24 21 16 12 11 10 10 9
20 17 17 20 22 21 21 22 10 10 13 14 19 22 16 21 19 32 43 39 24 24 25 27 33 34 34 39 39 33 29 19 19 20 21 19 19 25 21 18 15 12 13 11 10
19 17 16 17 20 21 21 18 11 2 7 12 18 18 14 21 17 24 37 36 30 23 25 26 33 32 28 34 37 36 30 18 20 21 20 20 20 22 21 18 15 13 13 13 12
18 16 15 16 19 21 20 24 5 1 5 12 17 18 15 16 22 13 28 38 38 24 26 27 31 23 14 25 31 32 31 19 19 21 21 20 20 19 20 16 14 13 14 13 13
18 17 15 16 17 19 22 23 16 3 7 10 10 14 13 15 18 14 18 29 25 17 26 25 29 25 16 16 27 27 31 23 21 22 22 21 21 20 18 16 15 14 14 14 13
18 17 14 15 16 17 17 19 22 4 8 13 15 15 13 14 16 17 10 23 31 20 27 27 28 21 15 19 20 23 25 26 23 21 23 22 20 20 18 15 16 16 16 15 15
18 15 15 16 16 13 13 14 14 11 8 12 16 15 8 10 17 16 18 16 28 26 31 32 28 19 17 21 24 24 22 27 24 21 20 20 15 18 18 17 17 16 16 16 16
19 22 18 16 14 13 15 14 14 8 8 9 15 10 8 13 16 15 17 17 23 23 36 28 25 25 23 28 23 24 18 25 23 23 19 19 15 16 16 19 18 18 18 16 15
16 19 19 18 17 18 20 20 13 5 1 4 9 4 11 12 17 16 17 19 21 22 31 27 28 30 30 26 12 22 15 25 20 18 20 18 19 18 15 13 17 19 17 16 15
11 12 14 16 14 16 18 16 19 9 8 8 9 13 12 18 18 17 16 13 22 35 33 24 24 25 22 23 15 18 18 22 21 20 21 20 21 20 18 14 12 13 15 16 17
14 10 9 10 10 10 10 15 13 14 15 11 10 11 11 16 19 16 12 14 28 40 33 26 23 23 25 23 15 19 21 21 18 17 15 15 18 19 18 17 17 17 16 17 16
17 13 9 8 10 10 10 9 15 10 9 11 7 8 12 13 17 17 16 31 32 35 27 13 22 20 24 21 16 24 20 19 15 17 7 12 3 9 12 16 18 16 16 17 18
21 16 12 9 8 10 9 9 8 7 4 9 15 21 15 12 26 20 24 28 37 25 18 18 21 21 25 23 24 20 19 12 15 13 11 11 4 7 11 9 13 14 15 16 18
21 20 17 12 10 11 7 10 8 6 7 10 16 18 26 24 27 25 18 24 21 16 22 24 25 21 25 22 18 22 22 20 15 12 2 10 9 5 8 11 10 11 11 11 13
21 22 20 18 12 9 11 7 8 9 4 16 17 19 27 29 29 22 22 23 18 22 27 24 20 17 19 18 18 25 27 6 3 0 4 12 9 5 7 5 7 8 8 10 11
18 21 21 18 19 15 14 21 16 16 18 19 20 19 20 22 17 14 15 14 13 17 26 12 12 23 20 21 21 32 13 6 6 4 4 9 8 4 9 10 10 11 11 9 8
16 17 19 19 15 13 11 15 11 13 15 17 17 12 10 10 12 12 13 17 18 24 5 10 10 14 22 21 26 22 8 6 8 6 4 6 6 7 9 9 9 9 9 8 9
13 13 19 19 18 15 18 21 17 17 15 11 4 11 15 9 6 6 6 11 12 16 9 8 11 17 17 17 13 16 12 5 4 3 2 4 4 3 5 7 8 8 9 9 9
11 13 16 14 13 12 20 19 11 7 6 8 8 15 10 8 11 3 6 12 13 9 10 9 11 11 16 10 15 15 13 5 5 2 4 3 3 6 7 5 5 7 8 8 10
12 11 11 12 10 13 15 13 12 11 10 8 10 14 11 7 10 5 11 10 18 12 12 9 10 12 12 10 15 14 15 9 4 5 3 2 4 6 5 6 7 7 6 8 12
7 9 9 10 8 11 10 8 7 5 5 7 7 9 9 5 2 5 10 11 19 16 13 11 7 11 5 8 14 16 16 16 9 7 6 4 3 8 9 10 8 7 7 13 17
7 5 6 8 9 6 8 8 7 7 6 6 8 7 4 3 2 6 10 12 12 11 10 9 12 6 10 6 13 17 19 18 17 9 7 6 5 7 12 12 11 13 16 19 18
7 5 6 5 6 6 7 6 6 5 5 4 4 6 4 2 5 5 6 11 11 9 9 5 10 9 8 7 10 14 18 22 24 20 11 10 13 11 14 15 14 18 21 19 16
7 6 5 5 5 4 4 4 5 6 5 5 5 4 4 4 2 7 7 10 8 9 9 9 5 9 9 7 8 11 14 17 19 22 23 15 15 17 18 17 18 19 18 15 12
8 6 5 5 3 4 4 3 3 3 2 4 3 4 5 3 4 4 5 7 4 7 9 8 6 5 4 6 8 12 19 22 19 18 19 25 22 23 24 23 20 16 13 13 17
Wind_Direction
344 341 336 326 315 308 304 299 292 281 269 246 235 226 232 209 207 202 204 205 213 210 195 194 189 186 189 190 186 182 182 183 185 203 200 196 197 201 206 202 204 202 176 192 210
349 344 339 338 333 329 317 300 286 272 270 243 233 225 236 195 203 204 208 206 196 203 199 190 187 184 187 192 186 178 179 177 195 195 209 201 209 209 204 204 208 211 206 220 223
350 351 354 351 344 349 342 315 279 268 257 247 227 224 233 190 199 203 206 203 209 197 202 186 183 185 188 192 187 181 180 175 185 180 188 199 201 210 208 207 205 218 219 228 240
349 358 3 357 351 350 343 343 330 259 260 236 222 224 228 178 189 202 203 202 192 201 197 188 178 180 187 189 187 183 181 174 167 170 186 197 198 202 202 207 212 212 223 233 244
350 354 1 4 359 357 10 358 347 285 208 199 206 218 216 175 185 195 201 199 194 197 186 193 181 177 183 191 187 189 185 175 168 174 195 201 198 204 208 205 207 215 226 237 247
354 358 2 8 6 358 2 4 348 145 172 184 194 209 200 183 186 177 192 205 205 180 177 194 179 169 160 197 190 194 187 183 178 187 203 203 207 200 210 211 213 216 227 238 249
1 3 13 7 8 6 11 7 19 136 145 156 175 170 185 201 189 182 194 202 201 188 172 185 147 152 160 176 192 196 192 190 190 196 205 205 204 198 214 215 218 226 232 242 252
1 12 11 3 14 8 12 21 28 134 141 154 162 174 192 186 192 195 186 199 205 190 164 173 154 141 152 194 181 192 189 193 195 199 202 200 209 203 211 218 224 232 240 250 258
12 9 9 3 16 14 8 9 18 23 168 171 178 186 213 185 186 193 202 195 199 192 155 160 161 172 167 179 168 177 190 197 202 202 204 199 201 205 211 219 226 234 244 253 259
22 26 29 20 25 17 9 10 359 345 135 179 186 180 206 177 181 178 186 187 193 208 156 162 167 176 175 179 173 179 174 190 203 200 201 204 206 208 211 224 232 240 246 253 260
1 21 29 38 50 45 32 22 12 40 154 134 130 166 174 190 183 172 174 184 184 171 163 161 174 182 181 179 182 185 182 190 194 202 206 209 219 219 219 226 241 245 251 254 262
343 356 7 16 14 19 30 16 31 74 93 94 112 126 150 153 151 156 170 191 189 180 165 162 181 177 179 174 161 180 189 184 189 199 204 214 223 233 235 239 251 250 261 264 262
1 334 338 349 351 350 6 11 17 71 75 100 94 137 150 161 153 146 161 206 179 168 162 162 170 171 171 175 192 186 195 191 195 192 199 215 233 238 245 245 242 251 257 264 265
19 6 346 332 350 346 358 350 9 46 63 46 51 94 126 153 146 128 172 158 152 156 160 157 166 172 179 179 183 170 181 196 190 180 165 196 231 216 230 243 245 242 242 251 264
24 19 10 356 339 351 1 10 12 33 59 13 62 121 121 126 125 117 141 135 136 137 167 143 156 165 174 182 169 172 168 178 166 168 159 186 222 225 225 225 227 231 235 243 261
25 30 24 12 9 357 22 35 46 48 32 46 67 114 109 110 108 128 111 111 148 134 152 139 149 162 173 174 164 155 148 143 152 156 154 184 212 210 206 230 241 242 250 259 258
27 33 34 35 29 28 41 72 61 47 52 79 74 121 113 102 102 95 126 131 136 137 139 144 154 159 161 162 160 157 147 117 62 136 202 185 209 227 211 232 247 261 264 268 271
24 27 35 43 47 45 83 88 73 70 95 86 80 96 103 103 81 102 95 110 135 153 133 131 137 149 164 168 164 160 174 167 164 169 201 184 220 221 218 240 251 258 252 252 258
26 30 36 45 44 48 78 84 112 99 99 106 102 93 94 100 120 116 103 126 140 156 154 133 137 149 161 167 166 174 181 148 109 115 130 190 190 204 221 237 248 256 261 263 259
28 29 35 42 56 60 86 99 106 103 89 76 84 123 122 121 103 102 114 134 129 156 145 136 129 152 158 162 175 182 170 154 145 124 190 214 199 217 196 226 243 247 238 244 252
18 34 38 36 44 73 89 101 107 96 102 97 100 133 129 116 129 131 146 158 166 125 143 117 146 167 160 174 180 182 186 172 150 149 154 147 214 197 216 235 220 214 225 243 260
21 37 40 43 59 63 81 96 105 94 106 113 126 155 156 134 138 143 171 158 173 156 162 168 149 159 184 183 184 192 195 184 195 182 143 129 176 185 216 206 205 207 232 265 279
2 30 44 51 52 60 69 69 70 90 110 112 125 144 174 180 142 151 166 173 177 177 168 163 166 131 173 209 201 200 199 200 197 170 189 163 189 193 205 212 211 223 264 294 295
352 7 36 49 58 65 86 80 76 67 62 93 123 138 144 171 206 154 158 160 169 177 174 180 167 185 183 172 187 201 204 210 216 218 191 208 193 191 216 226 238 258 280 297 288
347 356 20 39 48 56 65 91 94 103 105 100 144 154 137 98 123 151 161 171 177 179 183 178 187 181 161 167 185 203 212 218 226 231 231 236 224 216 219 243 261 280 285 284 278
353 346 353 4 17 18 49 55 73 94 104 113 115 120 158 159 120 150 162 177 188 197 199 207 188 214 224 220 228 234 234 234 235 231 232 219 210 223 238 258 276 275 271 272 283
8 360 354 354 2 350 360 4 22 48 72 117 120 126 145 149 169 178 184 195 195 202 203 210 214 197 210 226 255 268 244 241 242 242 239 226 231 242 253 259 265 272 277 279 288